Weather History for LFBM - July, 2013

Change the Weather History Date:

Tuesday, July 9, 2013

  Actual Average Record
Temperature  
Mean Temperature 78 °F -  
Max Temperature 92 °F 77 °F 92 °F (2013)
Min Temperature 64 °F 59 °F 48 °F (2008)
Cooling Degree Days 13    
Growing Degree Days 28 (Base 50)    
Moisture  
Dew Point 64 °F    
Average Humidity 64    
Maximum Humidity 100    
Minimum Humidity 31    
Precipitation  
Precipitation 0.00 in - - ()
Sea Level Pressure  
Sea Level Pressure 30.03 in    
Wind  
Wind Speed 2 mph ()    
Max Wind Speed 8 mph    
Max Gust Speed -    
Visibility 5.4 miles    
Events Thunderstorm    
Averages and records for this station are not official NWS values.
T = Trace of Precipitation, MM = Missing Value Source: Averaged Metar Reports

Daily Weather History Graph

Daily Weather History Graph

Search for Another Location

Airport or City:

Trip Planner

Search our weather history database for the weather conditions in past years. The results will help you decide how hot, cold, wet, or windy it might be!

Date:

Astronomy

Jul. 09, 2013 Rise Set
Actual Time 6:28 AM CEST 9:45 PM CEST
Civil Twilight 5:53 AM CEST 10:21 PM CEST
Nautical Twilight 5:07 AM CEST 11:06 PM CEST
Astronomical Twilight 4:10 AM CEST 12:03 AM CEST
Moon 7:43 AM CEST (7/9) 10:09 PM CEST (7/9)
Length of Visible Light 16h 27m
Length of Day
15h 17m
New Moon, 1% of the Moon is Illuminated
Jul 9
New Moon
Jul 16
First Quarter
Jul 22
Full
Jul 29
Last Quarter
Aug 6
New

Hourly Weather History & Observations

Time (CEST) Temp. Heat Index Dew Point Humidity Pressure Visibility Wind Dir Wind Speed Gust Speed Precip Events Conditions
12:00 AM 75.2 °F - 64.4 °F 69% 30.09 in 6.2 mi Variable 1.2 mph - N/A   Unknown
12:30 AM 71.6 °F - 66.2 °F 83% 30.09 in 6.2 mi East 1.2 mph - N/A   Unknown
1:00 AM 69.8 °F - 64.4 °F 83% 30.09 in 6.2 mi East 3.5 mph - N/A   Unknown
1:30 AM 69.8 °F - 62.6 °F 78% 30.09 in 6.2 mi Calm Calm - N/A   Unknown
2:00 AM 69 °F - 63 °F 77% 30.09 in 12 mi Calm Calm - -   Clear
2:00 AM 69.8 °F - 62.6 °F 78% 30.09 in 6.2 mi Calm Calm - N/A   Unknown
2:30 AM 68.0 °F - 62.6 °F 83% 30.06 in 6.2 mi Variable 3.5 mph - N/A   Unknown
3:00 AM 68.0 °F - 62.6 °F 83% 30.06 in 6.2 mi West 3.5 mph - N/A   Unknown
3:30 AM 68.0 °F - 62.6 °F 83% 30.06 in 6.2 mi WNW 5.8 mph - N/A   Unknown
4:00 AM 66.2 °F - 64.4 °F 94% 30.06 in 6.2 mi WNW 4.6 mph - N/A   Unknown
4:30 AM 66.2 °F - 64.4 °F 94% 30.06 in - West 4.6 mph - N/A   Mist
5:00 AM 66.2 °F - 64.4 °F 94% 30.04 in 1.7 mi Variable 2.3 mph - N/A   Mist
5:30 AM 66.2 °F - 64.4 °F 94% 30.04 in 1.2 mi West 2.3 mph - N/A   Mist
6:00 AM 66.2 °F - 64.4 °F 94% 30.04 in 0.7 mi Calm Calm - N/A   Mist
6:30 AM 66.2 °F - 64.4 °F 94% 30.06 in 1.6 mi WSW 2.3 mph - N/A   Mist
7:00 AM 64.4 °F - 64.4 °F 100% 30.06 in 1.6 mi Calm Calm - N/A   Mist
7:30 AM 66.2 °F - 64.4 °F 94% 30.06 in 1.6 mi East 2.3 mph - N/A   Mist
8:00 AM 67 °F - 66 °F 94% 30.08 in 2 mi East 2.3 mph - -   Mist
8:00 AM 66.2 °F - 66.2 °F 100% 30.06 in 2.5 mi East 2.3 mph - N/A   Mist
8:30 AM 68.0 °F - 66.2 °F 94% 30.06 in 3.1 mi Calm Calm - N/A   Mist
9:00 AM 71.6 °F - 66.2 °F 83% 30.06 in 3.7 mi Calm Calm - N/A   Unknown
9:30 AM 73.4 °F - 66.2 °F 78% 30.06 in 4.3 mi Variable 2.3 mph - N/A   Unknown
10:00 AM 75.2 °F - 66.2 °F 73% 30.06 in 5.0 mi South 3.5 mph - N/A   Unknown
10:30 AM 77.0 °F - 68.0 °F 74% 30.06 in 4.3 mi Variable 2.3 mph - N/A   Unknown
11:00 AM 80.6 °F 82.7 °F 66.2 °F 61% 30.06 in 4.3 mi Variable 2.3 mph - N/A   Unknown
11:30 AM 82.4 °F 84.6 °F 66.2 °F 58% 30.06 in 1.8 mi Variable 2.3 mph - N/A   Mist
12:00 PM 84.2 °F 86.6 °F 66.2 °F 55% 30.04 in 6.2 mi Variable 3.5 mph - N/A   Unknown
12:30 PM 86.0 °F 89.4 °F 68.0 °F 55% 30.04 in 6.2 mi Variable 3.5 mph - N/A   Unknown
1:00 PM 87.8 °F 91.4 °F 68.0 °F 52% 30.04 in 6.2 mi East 4.6 mph - N/A   Unknown
1:30 PM 87.8 °F 89.4 °F 64.4 °F 46% 30.04 in 6.2 mi Variable 4.6 mph - N/A   Unknown
2:00 PM 89 °F - 62 °F 31% 30.02 in 12 mi SSE 4.6 mph - -   Clear
2:00 PM 89.6 °F 90.1 °F 62.6 °F 40% 30.01 in 6.2 mi SSE 4.6 mph - N/A   Unknown
2:30 PM 89.6 °F 90.1 °F 62.6 °F 40% 30.01 in 6.2 mi Variable 4.6 mph - N/A   Unknown
3:00 PM 91.4 °F 91.4 °F 60.8 °F 36% 30.01 in 6.2 mi Variable 4.6 mph - N/A   Unknown
3:30 PM 91.4 °F 90.7 °F 59.0 °F 34% 30.01 in 6.2 mi Variable 3.5 mph - N/A   Unknown
4:00 PM 91.4 °F 90.7 °F 59.0 °F 34% 29.98 in 6.2 mi ESE 5.8 mph - N/A   Unknown
4:30 PM 91.4 °F 90.7 °F 59.0 °F 34% 29.98 in 6.2 mi ESE 5.8 mph - N/A   Unknown
5:00 PM 91.4 °F 90.7 °F 59.0 °F 34% 29.98 in 6.2 mi Variable 3.5 mph - N/A   Unknown
5:30 PM 91.4 °F 89.9 °F 57.2 °F 31% 29.98 in 6.2 mi ESE 5.8 mph - N/A   Unknown
6:00 PM 91.4 °F 89.9 °F 57.2 °F 31% 29.95 in 6.2 mi Variable 2.3 mph - N/A   Unknown
6:30 PM 91.4 °F 89.9 °F 57.2 °F 31% 29.95 in 6.2 mi Variable 3.5 mph - N/A   Unknown
7:00 PM 89.6 °F 88.9 °F 59.0 °F 36% 29.95 in 6.2 mi East 4.6 mph - N/A   Unknown
7:30 PM 89.6 °F 89.5 °F 60.8 °F 38% 29.95 in 6.2 mi ESE 3.5 mph - N/A   Unknown
8:00 PM 89 °F - 64 °F 33% 29.96 in 34 mi East 2.3 mph - -   Clear
8:00 PM 89.6 °F 91.1 °F 64.4 °F 43% 29.95 in 6.2 mi Variable 2.3 mph - N/A   Unknown
8:30 PM 86.0 °F 87.3 °F 64.4 °F 48% 29.95 in 6.2 mi ENE 8.1 mph - N/A   Unknown
9:00 PM 84.2 °F 85.6 °F 64.4 °F 51% 29.95 in 6.2 mi ENE 5.8 mph - N/A   Unknown
9:30 PM 82.4 °F 83.9 °F 64.4 °F 54% 29.98 in 6.2 mi ENE 5.8 mph - N/A   Unknown
10:00 PM 80.6 °F 82.3 °F 64.4 °F 58% 29.98 in 6.2 mi NNE 3.5 mph - N/A Thunderstorm Unknown
10:30 PM 82.4 °F 83.9 °F 64.4 °F 54% 29.98 in 6.2 mi Variable 3.5 mph - N/A   Unknown
11:00 PM 78.8 °F - 66.2 °F 65% 29.98 in 6.2 mi Variable 3.5 mph - N/A   Unknown
11:30 PM 78.8 °F - 66.2 °F 65% 29.98 in 6.2 mi North 4.6 mph - N/A   Unknown